[x] [x]
.:Aeroklub Partizánske:. |  .:Fotogaléria:. |  .:Videogaléria:. |  .:Foto týždňa:. |  .:Kniha návštev:. |  .:Linky:. |  .:Moje konto:.
 MENU [x]

 METEO [x]

 FotoGaléria [x]

 Slnko [x]
LZPT Partizánske
48°37'N 18°20'E
Východ: 7:34 AM
Západ: 3:52 PM
LZIB Bratislava
48°10'N 17°12'E
Východ: 7:37 AM
Západ: 3:58 PM
LZKZ Košice
48°39'N 21°14'E
Východ: 7:23 AM
Západ: 3:40 PM

 Jazyky [x]
Vyberte jazyk rozhrania:

Slovak English German Polish


  SPRÁVY METAR - SLOVENSKO
Bratislava-IvankaLZIB 191030Z 28014G24KT 250V310 9999 FEW030 15/05 Q1017 NOSIGdekóduj
Kamenica nad CirochouLZKC 011200Z 21006KT 150V290 9999 FEW053 04/M07 Q1019dekóduj
KošiceLZKZ 191030Z 18005KT 150V210 0250 R01/0550N FG OVC001 05/05 Q1016 NOSIGdekóduj
Poprad - TatryLZTT 191030Z 26016KT 9999 FEW013 10/07 Q1013 NOSIGdekóduj
LučenecLZLU 141110Z AUTO 08009KT //// ////// 02/01 Q0994dekóduj
NitraLZNI 312000Z /////KT CAVOK 01/M02 Q1022dekóduj
PrievidzaLZPE 312000Z /////KT CAVOK M03/M04 Q1022dekóduj
PiešťanyLZPP 191030Z 00000KT 9999 FEW015 13/09 Q1016dekóduj
SliačLZSL 191030Z 22002KT 2700 BR BKN004 OVC025 05/05 Q1016dekóduj
ŽilinaLZZI 191030Z VRB02KT 9999 FEW009 SCT016 OVC022 08/08 Q1015dekóduj
 FreeFly INFO [x]
COROWA 2009


COROWA 2009


COROWA 2009



 LZPT webcam [x]

 Foto týždňa [x]

 KBO SNA [x]

 Login [x]
Užívateľské meno

Heslo


Ešte nemáš konto? Môžeš si ho vytvoriť. Registrovaný užívateľ má množstvo výhod, napr. posielanie okamžitých správ iným užívateľom, posielanie komentárov s vlastným menom, možnosť pridávať fotografie do galérie...

 Kto je online [x]
Momentálne je online 46 hostí a 0 členov.

Ste anonymný užívateľ. Zaregistrovať sa môžete tu

DETAILY

 Linky [x]

 Počítadlo návštev [x]
Zaznamenali sme
34561479
strán zobrazených od júna 2003

Počet dnešných unikátnych IP adries:
0



www.freefly.sk
Powered by SzMsoft ©2003-2005. Polish translations by Cezary Dąbek. Flying server www.freefly.sk is administrated by maro@freefly.sk - www.artweb.freefly.sk
PHP-Nuke Copyright © 2004 by Francisco Burzi. This is free software, and you may redistribute it under the GPL. PHP-Nuke comes with absolutely no warranty, for details, see the license.